Find Gao Fen 3-02

NORAD ID: 49495 Int'l Des: 2021-109 Owner: GWHYZ Country: CN operational
LEOCIRCULARRETROGRADESSO

Aktuelle Ansicht

3D-Globus wird geladen...

Über Gao Fen 3-02

Beschreibung wird geladen...

Nächste Überflüge

Passes for default location (London). Set your location on the main map for personalized predictions.

Höhenverlauf

Loading altitude history...

Zweizeiliger Elementsatz

1 49495U 21109A 26149.59436782 .00000199 00000-0 73606-4 0 9995
2 49495 98.4087 157.9550 0003824 58.3074 301.8489 14.42214713237638
Epoch: 29. Mai 2026 • Age: 14 hours

Aktueller Status

Höhe 757.7 km
Geschwindigkeit 7.47 km/s
Subsatellitenpunkt -9.38°S, 22.54°E
Startdatum 22. Nov. 2021
Alter 4.5 years
Typ other

Technische Details

Klassifizierung Payload
Masse 2779.00 kg
Trockenmasse 2500.00 kg
Gesamtmasse 2779.00 kg
Länge 2.00 m
Durchmesser 2.00 m
Spannweite 8.00 m
Form Box + 3 Pan
Hersteller CAST
Bus-Typ CS-L3000B
Phasenstatus In Orbit
Besitzer/Staat GWHYZ/CN

Most Searched